Volver al catálogo

STARLINK-34769

ActivoComunicacionesVLEO
NORAD 65094·PAYLOAD·🇺🇸 United States

Lanzado Aug 4, 2025 desde Cape Canaveral Space Force Station

Loading…

Próximos Pases (próximas 24 horas)

TLE

ActualizadoSource: CelesTrak SupGP

Época: Sep 15, 2026, 04:00 UTC

1 65094C 25167S   26258.16715278 -.00037033  00000+0 -10943-2 0  2589
2 65094  53.1579 218.9782 0001449  83.8641  13.0816 15.34405363    15

Sigue STARLINK-34769 en tiempo real con AllMySat

Download on the App Store